DAL552 KJFK-KATL

Flight info

Callsign DAL552
Flight time 1h 38m
Altitude 34000
Route RBV Q430 BYRDD J48 MOL FLASK OZZZI2
Aircraft B763/H-SDE3FGHIM3RWXY/LB1

Departure

Time 2026-05-05 03:30
Airport John F. Kennedy International Airport (KJFK)

Arrival

Time 2026-05-05 05:08
Airport Hartsfield Jackson Atlanta International Airport (KATL)
Time Latitude Longitude Altitude Speed Heading
2026-05-05 03:16 40.63846 -73.78040 18 ft 0 kts 262°
2026-05-05 03:18 40.63847 -73.78030 18 ft 2 kts 262°
2026-05-05 03:19 40.63851 -73.77991 18 ft 2 kts 262°
2026-05-05 03:19 40.63853 -73.77971 18 ft 2 kts 262°
2026-05-05 03:19 40.63855 -73.77952 18 ft 2 kts 261°
2026-05-05 03:20 40.63862 -73.77935 18 ft 2 kts 211°
2026-05-05 03:20 40.63875 -73.77930 18 ft 2 kts 170°
2026-05-05 03:20 40.63890 -73.77934 18 ft 2 kts 171°
2026-05-05 03:20 40.63905 -73.77936 18 ft 2 kts 174°
2026-05-05 03:21 40.63918 -73.77937 18 ft 0 kts 173°
2026-05-05 03:22 40.63916 -73.77937 18 ft 1 kts 173°
2026-05-05 03:23 40.63884 -73.77933 18 ft 7 kts 173°
2026-05-05 03:23 40.63808 -73.77921 18 ft 14 kts 172°
2026-05-05 03:23 40.63681 -73.77900 18 ft 22 kts 173°
2026-05-05 03:23 40.63550 -73.77816 16 ft 3 kts 117°
2026-05-05 03:24 40.63552 -73.77800 17 ft 4 kts 65°
2026-05-05 03:24 40.63620 -73.77737 18 ft 20 kts 30°
2026-05-05 03:24 40.63784 -73.77610 18 ft 32 kts 32°
2026-05-05 03:24 40.63916 -73.77507 18 ft 17 kts 31°
2026-05-05 03:25 40.64022 -73.77424 18 ft 18 kts 30°
2026-05-05 03:25 40.64133 -73.77336 18 ft 18 kts 31°
2026-05-05 03:25 40.64247 -73.77245 18 ft 19 kts 31°
2026-05-05 03:25 40.64367 -73.77156 18 ft 20 kts 28°
2026-05-05 03:26 40.64422 -73.77059 18 ft 7 kts 85°
2026-05-05 03:26 40.64439 -73.77003 18 ft 6 kts 41°
2026-05-05 03:26 40.64481 -73.76989 18 ft 6 kts 358°
2026-05-05 03:26 40.64529 -73.76971 18 ft 9 kts 28°
2026-05-05 03:27 40.64599 -73.76920 18 ft 13 kts 29°
2026-05-05 03:27 40.64683 -73.76850 18 ft 14 kts 30°
2026-05-05 03:27 40.64774 -73.76780 18 ft 15 kts 30°
2026-05-05 03:27 40.64871 -73.76704 18 ft 16 kts 30°
2026-05-05 03:28 40.64972 -73.76625 18 ft 17 kts 31°
2026-05-05 03:28 40.65066 -73.76551 18 ft 10 kts 31°
2026-05-05 03:28 40.65100 -73.76485 18 ft 8 kts 98°
2026-05-05 03:28 40.65076 -73.76414 18 ft 8 kts 122°
2026-05-05 03:29 40.65022 -73.76356 18 ft 11 kts 179°
2026-05-05 03:29 40.64917 -73.76434 18 ft 35 kts 212°
2026-05-05 03:29 40.64488 -73.76771 18 ft 107 kts 211°
2026-05-05 03:29 40.63646 -73.77432 109 ft 166 kts 209°
2026-05-05 03:30 40.62673 -73.78187 1055 ft 168 kts 210°
2026-05-05 03:30 40.61702 -73.78927 2170 ft 160 kts 210°
2026-05-05 03:30 40.60734 -73.79684 2576 ft 174 kts 212°
2026-05-05 03:30 40.59618 -73.80562 2834 ft 198 kts 212°
2026-05-05 03:31 40.58553 -73.81797 3204 ft 218 kts 236°
2026-05-05 03:31 40.57758 -73.83582 3737 ft 235 kts 237°
2026-05-05 03:31 40.56865 -73.85373 4573 ft 240 kts 236°
2026-05-05 03:31 40.55906 -73.87194 5346 ft 249 kts 235°
2026-05-05 03:32 40.54889 -73.89062 6227 ft 254 kts 235°
2026-05-05 03:32 40.53889 -73.90866 7097 ft 257 kts 236°
2026-05-05 03:32 40.52829 -73.92756 7960 ft 263 kts 236°
2026-05-05 03:32 40.51734 -73.94693 8851 ft 267 kts 236°
2026-05-05 03:33 40.50638 -73.96625 9711 ft 271 kts 236°
2026-05-05 03:33 40.49509 -73.98611 10476 ft 280 kts 236°
2026-05-05 03:33 40.48284 -74.00767 10673 ft 310 kts 236°
2026-05-05 03:33 40.46917 -74.03165 10861 ft 340 kts 236°
2026-05-05 03:34 40.45478 -74.05679 11577 ft 352 kts 235°
2026-05-05 03:34 40.44007 -74.08244 12568 ft 355 kts 235°
2026-05-05 03:34 40.42530 -74.10822 13433 ft 360 kts 235°
2026-05-05 03:34 40.41024 -74.13449 14269 ft 366 kts 235°
2026-05-05 03:35 40.39485 -74.16131 15104 ft 369 kts 235°
2026-05-05 03:35 40.37941 -74.18819 15927 ft 374 kts 235°
2026-05-05 03:35 40.36369 -74.21554 16788 ft 377 kts 235°
2026-05-05 03:35 40.34790 -74.24300 17546 ft 383 kts 235°
2026-05-05 03:36 40.33194 -74.27071 18339 ft 386 kts 236°
2026-05-05 03:36 40.31569 -74.29893 19084 ft 391 kts 236°
2026-05-05 03:36 40.29930 -74.32734 19832 ft 396 kts 236°
2026-05-05 03:36 40.28260 -74.35628 20523 ft 402 kts 236°
2026-05-05 03:37 40.26577 -74.38541 21184 ft 407 kts 236°
2026-05-05 03:37 40.24865 -74.41500 21837 ft 412 kts 236°
2026-05-05 03:37 40.23125 -74.44508 22463 ft 416 kts 236°
2026-05-05 03:37 40.21565 -74.47665 23021 ft 418 kts 245°
2026-05-05 03:38 40.20461 -74.51164 23587 ft 420 kts 255°
2026-05-05 03:38 40.19854 -74.54917 24166 ft 421 kts 265°
2026-05-05 03:38 40.19556 -74.58717 24677 ft 426 kts 265°
2026-05-05 03:38 40.19232 -74.62572 25222 ft 429 kts 265°
2026-05-05 03:39 40.18923 -74.66447 25691 ft 433 kts 265°
2026-05-05 03:39 40.18610 -74.70348 26190 ft 437 kts 265°
2026-05-05 03:39 40.18292 -74.74326 26699 ft 440 kts 265°
2026-05-05 03:39 40.17972 -74.78316 27126 ft 444 kts 265°
2026-05-05 03:40 40.17650 -74.82330 27557 ft 447 kts 265°
2026-05-05 03:40 40.17326 -74.86350 27957 ft 451 kts 265°
2026-05-05 03:40 40.16996 -74.90429 28387 ft 454 kts 265°
2026-05-05 03:40 40.16663 -74.94526 28763 ft 458 kts 265°
2026-05-05 03:41 40.16328 -74.98644 29152 ft 460 kts 265°
2026-05-05 03:41 40.15986 -75.02808 29496 ft 464 kts 265°
2026-05-05 03:41 40.15642 -75.06983 29837 ft 466 kts 265°
2026-05-05 03:41 40.15290 -75.11241 30151 ft 469 kts 265°
2026-05-05 03:42 40.14940 -75.15456 30477 ft 471 kts 265°
2026-05-05 03:42 40.14587 -75.19692 30903 ft 470 kts 265°
2026-05-05 03:42 40.14233 -75.23907 31347 ft 469 kts 265°
2026-05-05 03:42 40.13878 -75.28127 31788 ft 467 kts 265°
2026-05-05 03:43 40.13523 -75.32323 32238 ft 465 kts 265°
2026-05-05 03:43 40.13168 -75.36504 32649 ft 464 kts 265°
2026-05-05 03:43 40.12814 -75.40654 33047 ft 462 kts 265°
2026-05-05 03:43 40.12458 -75.44817 33415 ft 462 kts 265°
2026-05-05 03:44 40.12096 -75.49025 33863 ft 461 kts 266°
2026-05-05 03:44 40.11742 -75.53114 33904 ft 458 kts 265°
2026-05-05 03:44 40.11023 -75.61392 33912 ft 457 kts 266°
2026-05-05 03:45 40.10298 -75.69664 33921 ft 460 kts 265°
2026-05-05 03:45 40.09473 -75.77908 33914 ft 460 kts 259°
2026-05-05 03:46 40.07111 -75.85639 33926 ft 466 kts 241°
2026-05-05 03:46 40.03621 -75.92784 33905 ft 468 kts 239°
2026-05-05 03:47 40.00057 -75.99884 33918 ft 468 kts 239°
2026-05-05 03:47 39.96478 -76.06941 33917 ft 469 kts 239°
2026-05-05 03:48 39.92871 -76.14020 33903 ft 468 kts 239°
2026-05-05 03:48 39.89293 -76.21021 33908 ft 467 kts 239°
2026-05-05 03:49 39.85688 -76.28057 33899 ft 468 kts 239°
2026-05-05 03:49 39.82077 -76.35088 33907 ft 467 kts 239°
2026-05-05 03:50 39.78492 -76.42055 33909 ft 467 kts 239°
2026-05-05 03:50 39.74889 -76.49041 33911 ft 466 kts 239°
2026-05-05 03:51 39.71265 -76.56051 33903 ft 467 kts 239°
2026-05-05 03:51 39.67670 -76.62991 33908 ft 466 kts 239°
2026-05-05 03:52 39.64060 -76.69945 33918 ft 466 kts 238°
2026-05-05 03:52 39.60439 -76.76904 33915 ft 465 kts 238°
2026-05-05 03:53 39.56820 -76.83844 33923 ft 466 kts 238°
2026-05-05 03:53 39.53204 -76.90763 33920 ft 464 kts 238°
2026-05-05 03:54 39.49374 -76.97493 33921 ft 467 kts 228°
2026-05-05 03:54 39.44508 -77.03006 33923 ft 470 kts 222°
2026-05-05 03:55 39.39459 -77.08389 33921 ft 469 kts 221°
2026-05-05 03:55 39.34430 -77.13693 33928 ft 469 kts 221°
2026-05-05 03:56 39.29377 -77.18998 33923 ft 468 kts 221°
2026-05-05 03:56 39.24322 -77.24290 33932 ft 469 kts 221°
2026-05-05 03:57 39.19278 -77.29559 33933 ft 468 kts 221°
2026-05-05 03:57 39.14230 -77.34823 33931 ft 468 kts 221°
2026-05-05 03:58 39.09156 -77.40103 33934 ft 468 kts 221°
2026-05-05 03:58 39.04100 -77.45354 33930 ft 467 kts 221°
2026-05-05 03:59 38.99065 -77.50573 33933 ft 467 kts 221°
2026-05-05 03:59 38.94019 -77.55795 33933 ft 467 kts 221°
2026-05-05 04:00 38.88969 -77.61009 33934 ft 466 kts 221°
2026-05-05 04:00 38.83908 -77.66226 33940 ft 466 kts 221°
2026-05-05 04:01 38.78860 -77.71421 33943 ft 466 kts 221°
2026-05-05 04:01 38.73821 -77.76596 33945 ft 465 kts 221°
2026-05-05 04:02 38.68771 -77.81773 33946 ft 465 kts 221°
2026-05-05 04:02 38.63909 -77.87189 33956 ft 460 kts 231°
2026-05-05 04:03 38.60006 -77.93612 33951 ft 459 kts 235°
2026-05-05 04:03 38.56184 -78.00075 33957 ft 458 kts 236°
2026-05-05 04:04 38.52352 -78.06574 33945 ft 457 kts 236°
2026-05-05 04:04 38.48552 -78.13016 33949 ft 458 kts 236°
2026-05-05 04:05 38.44731 -78.19482 33947 ft 456 kts 236°
2026-05-05 04:05 38.40919 -78.25923 33947 ft 455 kts 236°
2026-05-05 04:06 38.37120 -78.32329 33957 ft 455 kts 236°
2026-05-05 04:06 38.33305 -78.38747 33965 ft 454 kts 236°
2026-05-05 04:07 38.29506 -78.45128 33946 ft 453 kts 236°
2026-05-05 04:07 38.25700 -78.51508 33950 ft 453 kts 236°
2026-05-05 04:08 38.21891 -78.57880 33956 ft 452 kts 236°
2026-05-05 04:08 38.18105 -78.64202 33959 ft 451 kts 236°
2026-05-05 04:09 38.14306 -78.70533 33974 ft 451 kts 235°
2026-05-05 04:09 38.10517 -78.76835 33961 ft 449 kts 235°
2026-05-05 04:10 38.06726 -78.83129 33984 ft 450 kts 235°
2026-05-05 04:10 38.02949 -78.89386 33964 ft 447 kts 235°
2026-05-05 04:11 37.99165 -78.95644 33946 ft 447 kts 235°
2026-05-05 04:11 37.95403 -79.01853 33958 ft 447 kts 235°
2026-05-05 04:12 37.91634 -79.08064 33964 ft 446 kts 235°
2026-05-05 04:12 37.87584 -79.14062 33972 ft 448 kts 231°
2026-05-05 04:13 37.83411 -79.19911 33962 ft 447 kts 231°
2026-05-05 04:13 37.79252 -79.25706 33990 ft 447 kts 231°
2026-05-05 04:14 37.75050 -79.31542 33978 ft 448 kts 231°
2026-05-05 04:14 37.70861 -79.37348 33975 ft 446 kts 231°
2026-05-05 04:15 37.66708 -79.43092 33979 ft 446 kts 231°
2026-05-05 04:15 37.62520 -79.48876 33973 ft 448 kts 231°
2026-05-05 04:16 37.58317 -79.54668 33995 ft 446 kts 231°
2026-05-05 04:16 37.54158 -79.60391 33990 ft 446 kts 231°
2026-05-05 04:17 37.49970 -79.66142 33993 ft 445 kts 231°
2026-05-05 04:17 37.45793 -79.71870 33988 ft 445 kts 230°
2026-05-05 04:18 37.41589 -79.77623 33987 ft 445 kts 230°
2026-05-05 04:18 37.37421 -79.83316 34004 ft 444 kts 231°
2026-05-05 04:19 37.33231 -79.89030 34012 ft 444 kts 231°
2026-05-05 04:19 37.29054 -79.94717 34008 ft 444 kts 231°
2026-05-05 04:20 37.24882 -80.00384 34008 ft 443 kts 231°
2026-05-05 04:20 37.20684 -80.06079 34010 ft 443 kts 231°
2026-05-05 04:21 37.16520 -80.11718 34009 ft 443 kts 231°
2026-05-05 04:21 37.12345 -80.17361 34016 ft 443 kts 231°
2026-05-05 04:22 37.08156 -80.23014 34015 ft 442 kts 231°
2026-05-05 04:22 37.03968 -80.28655 34027 ft 442 kts 231°
2026-05-05 04:23 36.99760 -80.34199 34025 ft 442 kts 230°
2026-05-05 04:23 36.95462 -80.39701 34017 ft 441 kts 230°
2026-05-05 04:24 36.91193 -80.45161 34014 ft 442 kts 230°
2026-05-05 04:25 36.84754 -80.53381 34022 ft 442 kts 230°
2026-05-05 04:25 36.80487 -80.58815 34024 ft 440 kts 230°
2026-05-05 04:26 36.76194 -80.64275 34030 ft 441 kts 230°
2026-05-05 04:26 36.71894 -80.69734 34047 ft 442 kts 230°
2026-05-05 04:27 36.67595 -80.75181 34034 ft 441 kts 230°
2026-05-05 04:27 36.63280 -80.80643 34036 ft 446 kts 229°
2026-05-05 04:28 36.58944 -80.86117 34035 ft 446 kts 229°
2026-05-05 04:28 36.54592 -80.91603 34033 ft 445 kts 230°
2026-05-05 04:29 36.50240 -80.97082 34037 ft 445 kts 229°
2026-05-05 04:29 36.45889 -81.02550 34047 ft 445 kts 229°
2026-05-05 04:30 36.41547 -81.07996 34042 ft 445 kts 229°
2026-05-05 04:30 36.37195 -81.13447 34046 ft 445 kts 229°
2026-05-05 04:31 36.32862 -81.18863 34040 ft 444 kts 229°
2026-05-05 04:31 36.28513 -81.24300 34045 ft 445 kts 229°
2026-05-05 04:32 36.24162 -81.29733 34040 ft 445 kts 229°
2026-05-05 04:32 36.19796 -81.35173 34045 ft 444 kts 229°
2026-05-05 04:33 36.15462 -81.40565 34050 ft 445 kts 229°
2026-05-05 04:33 36.11091 -81.45994 34046 ft 444 kts 229°
2026-05-05 04:34 36.06719 -81.51415 34048 ft 445 kts 229°
2026-05-05 04:34 36.02348 -81.56827 34039 ft 445 kts 229°
2026-05-05 04:35 35.97991 -81.62211 34050 ft 444 kts 229°
2026-05-05 04:35 35.93628 -81.67595 34059 ft 446 kts 229°
2026-05-05 04:36 35.89237 -81.73005 34058 ft 446 kts 229°
2026-05-05 04:36 35.84847 -81.78403 34054 ft 447 kts 229°
2026-05-05 04:37 35.80469 -81.83777 34056 ft 445 kts 229°
2026-05-05 04:37 35.76039 -81.89125 34058 ft 447 kts 228°
2026-05-05 04:38 35.71594 -81.94448 34052 ft 448 kts 228°
2026-05-05 04:38 35.67118 -81.99799 34052 ft 448 kts 228°
2026-05-05 04:39 35.62673 -82.05106 34060 ft 448 kts 228°
2026-05-05 04:39 35.58183 -82.10456 34060 ft 448 kts 228°
2026-05-05 04:40 35.53710 -82.15778 34065 ft 450 kts 228°
2026-05-05 04:40 35.49230 -82.21101 34062 ft 449 kts 228°
2026-05-05 04:41 35.44736 -82.26430 34068 ft 451 kts 228°
2026-05-05 04:41 35.40310 -82.31802 34068 ft 450 kts 229°
2026-05-05 04:42 35.35892 -82.37299 34064 ft 450 kts 229°
2026-05-05 04:42 35.31527 -82.42716 34065 ft 451 kts 229°
2026-05-05 04:43 35.27107 -82.48195 34066 ft 452 kts 229°
2026-05-05 04:43 35.22674 -82.53679 34069 ft 453 kts 229°
2026-05-05 04:44 35.18268 -82.59119 34065 ft 452 kts 229°
2026-05-05 04:44 35.13785 -82.64553 34057 ft 455 kts 228°
2026-05-05 04:45 35.09263 -82.69926 34066 ft 456 kts 227°
2026-05-05 04:45 35.04723 -82.75311 34057 ft 455 kts 228°
2026-05-05 04:45 35.02441 -82.78017 33723 ft 464 kts 227°
2026-05-05 04:46 35.00126 -82.80759 32875 ft 470 kts 227°
2026-05-05 04:46 34.97803 -82.83504 32037 ft 462 kts 227°
2026-05-05 04:46 34.95507 -82.86217 31313 ft 456 kts 227°
2026-05-05 04:46 34.93254 -82.88869 31279 ft 445 kts 227°
2026-05-05 04:47 34.90974 -82.91518 30776 ft 462 kts 227°
2026-05-05 04:47 34.88649 -82.94213 30203 ft 470 kts 226°
2026-05-05 04:47 34.86278 -82.96957 29547 ft 470 kts 226°
2026-05-05 04:47 34.83929 -82.99673 28910 ft 467 kts 226°
2026-05-05 04:48 34.81546 -83.02426 28276 ft 467 kts 226°
2026-05-05 04:48 34.79190 -83.05147 27566 ft 465 kts 226°
2026-05-05 04:48 34.76902 -83.07784 27409 ft 448 kts 226°
2026-05-05 04:48 34.74668 -83.10362 27423 ft 447 kts 226°
2026-05-05 04:49 34.72346 -83.13043 26911 ft 467 kts 226°
2026-05-05 04:49 34.69990 -83.15755 26154 ft 467 kts 226°
2026-05-05 04:49 34.67658 -83.18436 25384 ft 463 kts 226°
2026-05-05 04:49 34.65361 -83.21075 24699 ft 457 kts 226°
2026-05-05 04:50 34.63053 -83.23725 24113 ft 449 kts 226°
2026-05-05 04:50 34.60830 -83.26276 23776 ft 436 kts 226°
2026-05-05 04:50 34.58660 -83.28764 23696 ft 421 kts 226°
2026-05-05 04:50 34.56516 -83.31223 23445 ft 435 kts 226°
2026-05-05 04:51 34.54298 -83.33774 23102 ft 441 kts 226°
2026-05-05 04:51 34.52096 -83.36307 22531 ft 437 kts 226°
2026-05-05 04:51 34.49910 -83.38820 21983 ft 429 kts 226°
2026-05-05 04:51 34.47760 -83.41290 21478 ft 420 kts 226°
2026-05-05 04:52 34.45665 -83.43695 21022 ft 413 kts 226°
2026-05-05 04:52 34.43599 -83.46066 20601 ft 412 kts 226°
2026-05-05 04:52 34.41518 -83.48453 20156 ft 414 kts 226°
2026-05-05 04:52 34.39425 -83.50851 19631 ft 413 kts 225°
2026-05-05 04:53 34.37349 -83.53227 19088 ft 408 kts 225°
2026-05-05 04:53 34.35305 -83.55565 18660 ft 400 kts 225°
2026-05-05 04:53 34.33320 -83.57835 18390 ft 395 kts 225°
2026-05-05 04:53 34.31293 -83.60153 17973 ft 400 kts 225°
2026-05-05 04:54 34.29292 -83.62434 17910 ft 393 kts 225°
2026-05-05 04:54 34.27259 -83.64638 17539 ft 402 kts 223°
2026-05-05 04:54 34.25151 -83.66880 16970 ft 403 kts 223°
2026-05-05 04:54 34.23056 -83.69103 16400 ft 396 kts 223°
2026-05-05 04:55 34.21014 -83.71276 15906 ft 388 kts 223°
2026-05-05 04:55 34.19004 -83.73411 15493 ft 383 kts 223°
2026-05-05 04:55 34.17003 -83.75539 15107 ft 383 kts 222°
2026-05-05 04:55 34.15016 -83.77651 14636 ft 387 kts 222°
2026-05-05 04:56 34.12984 -83.79806 14025 ft 386 kts 222°
2026-05-05 04:56 34.10997 -83.81911 13990 ft 370 kts 222°
2026-05-05 04:56 34.09055 -83.83976 13992 ft 377 kts 222°
2026-05-05 04:56 34.07077 -83.86105 13731 ft 387 kts 222°
2026-05-05 04:57 34.05086 -83.88238 13525 ft 379 kts 222°
2026-05-05 04:57 34.03123 -83.90346 13321 ft 374 kts 222°
2026-05-05 04:57 34.01191 -83.92418 13121 ft 376 kts 222°
2026-05-05 04:57 33.99203 -83.94458 12918 ft 376 kts 216°
2026-05-05 04:58 33.96919 -83.95924 12903 ft 363 kts 200°
2026-05-05 04:58 33.94536 -83.96519 12810 ft 340 kts 184°
2026-05-05 04:58 33.92258 -83.96505 12765 ft 312 kts 181°
2026-05-05 04:58 33.90174 -83.96471 12499 ft 297 kts 181°
2026-05-05 04:59 33.88113 -83.96412 11891 ft 296 kts 180°
2026-05-05 04:59 33.86069 -83.96340 11368 ft 290 kts 180°
2026-05-05 04:59 33.84061 -83.96265 10743 ft 289 kts 179°
2026-05-05 04:59 33.82063 -83.96185 10216 ft 285 kts 179°
2026-05-05 05:00 33.80094 -83.96105 9642 ft 282 kts 179°
2026-05-05 05:00 33.78144 -83.96025 9057 ft 280 kts 179°
2026-05-05 05:00 33.76230 -83.95966 8492 ft 276 kts 185°
2026-05-05 05:00 33.74377 -83.96513 7969 ft 269 kts 203°
2026-05-05 05:01 33.72683 -83.97332 7690 ft 257 kts 202°
2026-05-05 05:01 33.71059 -83.98104 7442 ft 247 kts 202°
2026-05-05 05:01 33.69478 -83.98874 7209 ft 246 kts 202°
2026-05-05 05:01 33.67890 -83.99654 6934 ft 242 kts 202°
2026-05-05 05:02 33.66402 -84.00481 6680 ft 236 kts 216°
2026-05-05 05:02 33.65366 -84.01982 6464 ft 233 kts 247°
2026-05-05 05:02 33.64955 -84.03835 6196 ft 235 kts 264°
2026-05-05 05:02 33.64939 -84.05806 5921 ft 236 kts 268°
2026-05-05 05:03 33.64933 -84.07782 5642 ft 236 kts 267°
2026-05-05 05:03 33.64928 -84.09739 5376 ft 236 kts 267°
2026-05-05 05:03 33.64926 -84.11702 5132 ft 235 kts 267°
2026-05-05 05:03 33.64927 -84.13637 4901 ft 234 kts 267°
2026-05-05 05:04 33.64930 -84.15577 4725 ft 228 kts 267°
2026-05-05 05:04 33.64935 -84.17432 4670 ft 215 kts 267°
2026-05-05 05:04 33.64938 -84.19203 4437 ft 212 kts 266°
2026-05-05 05:04 33.64939 -84.20955 4175 ft 211 kts 266°
2026-05-05 05:05 33.64942 -84.22704 3912 ft 211 kts 266°
2026-05-05 05:05 33.64945 -84.24464 3646 ft 210 kts 266°
2026-05-05 05:05 33.64946 -84.26215 3371 ft 210 kts 266°
2026-05-05 05:05 33.64949 -84.27930 3089 ft 200 kts 266°
2026-05-05 05:06 33.64954 -84.29511 2836 ft 182 kts 266°
2026-05-05 05:06 33.64955 -84.30958 2601 ft 165 kts 266°
2026-05-05 05:06 33.64957 -84.32259 2410 ft 150 kts 266°
2026-05-05 05:06 33.64955 -84.33513 2191 ft 147 kts 266°
2026-05-05 05:07 33.64955 -84.34734 2002 ft 147 kts 267°
2026-05-05 05:07 33.64954 -84.35969 1797 ft 150 kts 267°
2026-05-05 05:07 33.64956 -84.37219 1615 ft 152 kts 268°
2026-05-05 05:07 33.64952 -84.38473 1431 ft 149 kts 268°
2026-05-05 05:08 33.64952 -84.39708 1238 ft 146 kts 269°
2026-05-05 05:08 33.64957 -84.40913 1029 ft 146 kts 269°
2026-05-05 05:08 33.64955 -84.42052 983 ft 101 kts 270°
2026-05-05 05:08 33.64955 -84.42575 993 ft 42 kts 271°
2026-05-05 05:09 33.64957 -84.42920 999 ft 30 kts 271°
2026-05-05 05:09 33.64946 -84.43098 1004 ft 17 kts 257°
2026-05-05 05:09 33.64910 -84.43227 1007 ft 15 kts 243°
2026-05-05 05:09 33.64861 -84.43331 1010 ft 13 kts 248°
2026-05-05 05:10 33.64845 -84.43439 1012 ft 13 kts 268°
2026-05-05 05:10 33.64822 -84.43529 1014 ft 10 kts 218°
2026-05-05 05:10 33.64753 -84.43577 1015 ft 13 kts 210°
2026-05-05 05:10 33.64655 -84.43645 1017 ft 19 kts 211°
2026-05-05 05:11 33.64528 -84.43726 1018 ft 21 kts 194°
2026-05-05 05:11 33.64377 -84.43722 1018 ft 21 kts 178°
2026-05-05 05:11 33.64260 -84.43721 1018 ft 12 kts 180°
2026-05-05 05:11 33.64226 -84.43715 1018 ft 2 kts 136°
2026-05-05 05:12 33.64223 -84.43691 1017 ft 5 kts 96°
2026-05-05 05:12 33.64222 -84.43657 1017 ft 0 kts 90°